GFSGBSN_prec_cthk_093.txt.gz
RH
27 28 26 27 26 26 27 27 28 31 35 37 38 42 40 38 37 35 34 30 29 29 31 28 27 26 25 23 23 20 21 24 26 28 28 29 29 29 26 25 26 27 23 21 20 20 19
24 24 24 22 20 19 19 20 21 23 26 29 32 35 38 40 41 38 36 34 31 29 28 28 27 28 32 31 22 20 18 18 25 28 30 34 34 33 32 29 27 26 26 24 23 22 22
24 20 18 19 18 17 15 14 15 17 16 22 23 28 32 35 36 40 40 36 32 29 27 27 29 32 35 25 21 19 22 22 23 25 28 30 32 35 36 33 28 26 26 27 27 28 25
15 16 15 14 13 13 12 13 13 15 16 20 20 24 24 26 26 28 33 37 30 28 27 28 30 34 35 22 19 18 16 16 16 17 26 29 30 31 31 33 33 32 30 33 30 31 30
15 13 14 14 14 14 14 15 16 15 18 20 21 23 21 22 20 20 20 23 27 32 30 32 35 39 36 25 22 20 20 20 16 17 25 30 31 29 29 32 38 36 37 34 34 35 38
16 15 15 15 14 15 16 18 19 18 19 24 25 25 25 22 21 20 16 13 24 38 38 37 41 41 28 28 34 33 25 25 24 22 26 27 31 29 31 35 38 41 40 38 38 38 40
17 17 17 17 16 16 18 23 22 21 23 25 26 25 25 25 23 23 14 22 29 41 47 48 46 39 31 35 32 35 33 32 28 26 25 24 28 28 27 32 36 41 43 45 44 45 46
14 12 12 15 15 16 22 25 28 28 27 28 29 28 26 27 25 25 17 42 48 56 52 40 37 40 31 38 40 31 31 27 29 26 23 26 24 22 26 28 32 37 42 44 45 47 47
14 15 16 17 16 18 24 26 28 31 34 34 33 30 30 31 28 25 24 45 47 56 54 38 31 32 27 27 36 30 29 24 25 28 26 27 26 24 24 27 30 32 36 39 43 46 47
17 16 15 15 16 18 23 29 32 33 37 40 35 35 31 34 31 30 33 42 54 58 53 34 33 31 26 24 27 20 28 22 22 25 27 29 29 32 38 39 40 46 39 43 44 49 50
17 15 14 15 17 20 23 27 34 35 41 44 40 41 38 42 38 34 37 44 56 66 62 30 38 36 31 21 22 18 17 20 23 29 34 40 43 45 47 49 50 50 46 48 47 56 65
12 13 15 18 23 24 25 29 37 45 47 41 40 43 45 42 41 39 36 46 72 62 56 38 43 42 37 31 28 26 26 26 24 33 35 37 43 42 41 42 46 51 54 55 59 65 68
16 16 22 26 26 24 28 37 51 53 53 53 49 39 45 44 41 46 37 55 68 70 34 58 57 48 40 37 37 30 30 31 30 38 42 40 42 42 43 52 59 64 67 73 79 80 70
16 19 22 25 23 28 33 47 53 53 45 53 45 42 48 44 49 50 50 60 72 43 54 71 58 60 50 45 43 36 36 37 32 33 40 45 35 38 46 52 62 71 68 77 78 84 79
17 23 25 27 23 30 50 62 55 48 45 34 42 45 45 51 49 49 55 71 56 60 77 86 62 65 62 50 47 45 42 41 40 35 38 42 41 40 46 50 58 74 77 82 91 96 95
19 23 24 25 25 44 63 69 66 52 47 47 41 51 50 52 48 52 67 77 51 75 81 90 80 70 68 61 56 56 58 57 52 42 39 39 44 44 52 55 63 75 83 91 96 97 96
20 20 24 27 36 56 69 70 70 60 46 57 51 62 60 64 63 58 54 71 59 77 90 98 85 76 73 72 64 73 77 67 59 57 52 49 53 56 60 62 67 76 84 92 98 99 97
21 22 26 29 51 64 71 75 72 62 56 62 70 68 73 80 72 61 52 77 74 78 86 97 89 78 75 73 69 83 94 86 67 64 64 61 66 68 60 53 63 76 81 92 99 98 95
26 29 25 34 57 66 73 82 83 73 58 68 80 79 72 83 90 63 46 52 63 87 88 97 94 82 76 76 79 78 75 75 69 66 65 61 71 74 69 65 73 86 93 96 95 97 95
24 23 25 41 58 71 76 85 86 77 65 69 82 84 80 87 90 88 47 60 65 67 76 90 91 83 76 75 73 77 77 79 71 69 64 60 63 65 74 74 70 87 87 90 95 99 92
27 22 28 44 57 73 77 83 83 74 63 63 78 74 80 92 97 88 62 85 85 80 85 89 88 88 73 72 72 76 76 71 68 68 66 62 61 54 54 55 59 71 80 85 88 94 96
25 22 27 45 57 75 80 84 84 73 61 61 67 71 84 84 87 92 72 70 85 95 85 88 84 78 65 58 59 65 64 59 55 51 49 55 55 52 49 50 55 54 60 68 75 87 92
28 24 33 47 54 76 82 87 86 81 72 61 57 65 74 78 87 88 95 98 98 96 86 79 74 68 60 55 54 56 53 50 51 51 50 54 54 54 55 44 39 36 63 64 75 84 91
29 25 34 47 56 78 83 87 87 90 79 72 59 54 65 71 79 85 82 88 92 90 83 72 70 64 65 62 57 53 52 50 49 45 45 46 46 52 59 44 45 28 52 73 78 87 91
30 30 39 48 58 77 83 85 89 90 90 77 71 65 51 60 67 74 74 79 82 86 86 85 77 73 72 66 62 60 57 51 49 44 38 42 50 56 61 54 35 25 48 64 73 79 87
29 34 41 51 62 78 85 85 86 92 92 90 76 70 60 51 48 57 61 67 74 85 86 86 77 75 71 70 71 68 65 58 53 46 51 54 53 59 61 62 53 35 46 62 74 85 80
28 35 44 54 69 85 90 90 89 93 93 90 88 80 76 69 40 47 52 61 70 77 76 74 74 71 68 67 65 60 56 59 61 56 50 62 64 66 70 69 53 26 40 59 83 82 80
27 38 49 60 78 88 92 92 95 95 95 90 87 91 85 77 68 54 38 49 52 60 65 61 60 67 70 79 75 67 67 63 63 53 57 67 76 77 78 80 72 43 35 53 83 93 89
30 46 54 68 85 93 95 96 96 98 98 88 90 92 95 91 82 72 49 40 45 52 59 61 69 77 86 86 86 82 80 74 71 70 63 75 80 88 82 74 79 62 61 61 69 84 90

GFSGBSN_prec_cthk_096.txt.gz
RH
25 22 22 22 21 20 18 17 17 18 19 19 18 18 20 24 27 28 34 37 34 31 28 28 30 30 32 33 28 27 29 29 29 30 30 30 30 28 27 26 27 29 27 26 25 24 21
19 19 19 22 20 17 16 15 14 13 14 15 14 16 16 18 18 18 22 25 33 34 29 27 27 29 37 38 28 26 26 25 23 29 31 33 30 30 30 30 30 29 30 28 27 25 25
19 20 22 20 17 15 12 10 9 10 11 12 13 13 17 18 18 13 12 17 20 26 29 28 28 31 36 31 27 25 26 29 23 24 30 33 35 37 37 36 34 33 33 30 29 30 29
17 15 17 15 14 13 12 11 11 12 13 14 14 16 19 18 17 16 14 13 9 11 21 29 31 35 36 27 27 26 23 25 27 25 29 33 34 34 34 36 38 39 39 40 33 30 28
11 10 13 13 10 9 10 12 15 14 12 15 16 18 21 19 18 17 17 11 6 12 15 25 38 41 36 30 29 27 27 23 24 24 21 24 30 32 32 33 37 41 45 40 36 34 33
12 12 11 11 11 14 15 15 14 13 13 16 20 21 21 21 20 19 17 13 13 19 23 24 38 42 30 28 36 37 33 30 29 24 22 27 29 31 33 35 35 40 42 41 40 35 36
13 9 8 11 14 13 12 14 13 14 17 22 24 24 26 25 21 21 20 15 21 26 31 34 39 42 36 40 42 45 42 42 37 31 31 29 31 32 28 31 33 37 40 42 41 41 41
11 12 15 16 15 14 15 15 15 15 17 19 22 26 28 30 25 24 26 26 42 50 36 29 26 28 36 37 45 44 44 42 44 42 35 34 33 29 29 29 31 34 37 38 38 38 40
15 13 11 12 13 12 12 13 14 17 20 19 23 28 32 33 29 27 32 30 45 51 48 23 19 23 34 31 36 36 45 43 46 46 45 43 37 28 26 25 27 29 31 31 33 35 36
15 13 11 12 13 10 11 12 13 15 18 21 27 34 39 41 35 36 36 36 38 57 61 28 22 23 31 39 36 24 40 43 42 45 41 38 30 31 30 30 29 35 34 36 37 41 47
15 12 13 13 13 14 14 15 17 19 20 28 37 39 42 42 43 38 36 33 41 67 71 20 36 33 36 36 27 30 28 48 43 35 38 36 38 36 36 37 41 46 45 45 46 47 57
12 15 14 15 16 16 14 14 16 20 32 40 47 48 43 39 41 40 37 35 46 69 54 35 60 54 45 38 40 33 31 41 42 41 37 36 43 43 41 46 47 46 44 43 50 57 63
15 16 14 14 15 15 17 18 21 29 37 40 39 44 43 38 40 43 42 38 62 92 38 58 77 69 58 46 45 35 32 34 33 39 45 41 42 45 49 49 47 49 52 63 63 68 57
15 14 14 15 18 16 18 23 36 39 42 40 40 31 34 40 43 51 49 50 65 38 46 65 76 76 66 55 54 42 45 40 37 33 43 46 42 45 46 45 51 59 55 64 73 73 72
16 13 16 15 17 18 19 33 42 47 50 42 42 36 34 42 47 52 55 62 51 55 78 83 86 79 74 60 61 54 49 49 39 36 41 47 40 43 49 47 48 63 67 63 77 70 84
16 15 15 13 20 23 27 39 47 53 56 47 42 39 42 54 59 57 60 56 58 77 89 95 97 90 83 73 67 68 61 58 52 43 42 44 49 51 53 50 55 58 66 82 85 86 84
16 16 14 17 22 26 36 43 52 63 64 49 48 45 53 64 68 66 66 53 52 61 94 98 98 97 97 79 72 71 71 62 56 54 48 44 45 55 55 58 61 65 71 80 84 89 94
19 17 15 18 22 32 40 46 58 73 67 57 52 58 64 74 94 78 67 49 66 89 97 96 96 99 98 83 87 90 90 73 65 59 59 52 59 63 63 58 58 65 75 79 90 89 94
18 20 21 19 24 37 42 50 65 76 68 61 53 62 74 78 89 96 80 51 53 72 83 92 93 98 97 87 93 95 95 85 77 73 73 67 68 73 79 73 66 75 83 90 98 92 88
19 22 19 17 26 40 44 53 68 78 71 63 55 64 71 84 94 94 80 49 44 68 74 81 93 98 96 89 79 91 95 89 82 75 69 66 70 66 76 74 69 71 77 89 96 97 93
23 21 20 17 29 41 47 57 69 80 67 58 56 62 69 81 92 90 81 62 87 85 89 87 98 98 95 94 94 88 79 77 75 73 70 69 71 67 59 54 57 57 61 75 85 90 92
22 21 19 17 26 42 49 62 73 79 70 60 54 57 63 72 76 84 82 79 88 92 98 97 92 92 92 88 89 85 77 77 77 70 68 67 67 64 58 47 49 46 45 47 63 71 72
24 22 22 19 32 43 50 62 79 83 73 67 57 54 62 65 71 78 80 82 90 96 97 88 86 88 84 82 62 56 58 57 56 58 56 52 54 58 51 42 42 35 33 48 62 74 81
28 21 23 20 34 43 53 65 80 87 80 74 67 60 55 64 71 72 73 81 87 87 94 87 81 82 79 70 50 43 42 41 42 40 41 41 43 50 56 45 47 24 33 41 60 76 84
29 26 25 23 36 45 54 66 81 87 86 80 74 68 63 61 63 65 68 74 74 77 87 90 84 80 75 63 57 51 49 45 46 50 48 48 48 51 56 54 40 32 42 49 62 70 81
31 31 26 27 39 46 54 67 81 87 88 85 83 71 67 63 54 58 65 65 64 72 80 81 79 74 68 67 63 58 57 54 58 52 55 57 58 60 62 66 61 31 50 43 39 65 76
33 32 30 29 39 48 58 71 86 87 90 88 83 83 71 68 59 53 63 68 70 72 77 79 75 74 71 71 71 72 67 61 58 62 58 59 64 67 68 69 64 51 47 41 49 66 79
34 34 29 30 42 51 65 78 88 92 94 92 83 87 83 74 70 60 55 51 54 65 73 73 71 71 72 73 77 77 68 61 62 60 62 62 73 78 75 81 74 68 56 51 53 58 74
37 37 28 35 47 57 70 81 91 94 96 96 88 87 92 90 80 71 65 53 41 50 61 62 66 70 71 76 76 82 80 75 73 72 67 75 83 82 83 77 79 83 78 74 63 61 67

GFSGBSN_prec_cthk_102.txt.gz
RH
32 27 23 22 20 17 14 14 12 11 10 8 7 6 7 7 8 8 7 7 6 5 5 5 6 7 11 13 13 19 22 25 32 36 42 42 41 41 41 40 39 37 32 29 29 28 28
29 25 24 21 17 18 17 13 11 10 9 7 6 7 7 7 8 8 7 7 6 5 5 4 5 8 15 18 6 7 17 24 28 36 38 44 43 43 43 40 39 37 37 33 31 29 28
30 26 24 19 19 17 13 10 11 11 7 6 7 7 7 7 7 7 6 6 6 6 5 5 6 12 15 10 4 5 9 18 26 31 39 45 44 45 43 41 38 37 36 34 32 30 27
30 25 21 20 18 13 10 13 11 8 7 8 9 8 8 7 7 6 6 6 6 7 7 9 11 16 15 9 4 4 6 14 21 27 35 39 49 50 46 44 41 38 38 38 35 33 28
27 22 20 18 14 10 10 12 11 8 9 9 8 8 8 7 7 6 7 8 8 9 15 14 18 20 17 14 12 16 19 19 22 25 32 37 41 52 56 53 47 42 41 42 38 37 32
25 21 18 16 11 11 14 11 10 10 10 9 8 8 8 7 8 10 13 12 10 15 22 23 29 29 17 14 18 24 28 24 29 31 33 38 40 47 51 51 46 45 43 38 39 37 36
24 20 19 13 12 14 12 14 15 12 10 9 9 9 9 10 13 16 18 19 19 23 23 20 19 19 15 11 17 20 29 30 31 33 31 39 43 42 47 48 46 41 37 36 36 41 38
21 19 13 12 12 10 11 16 12 10 10 10 9 11 15 16 18 20 23 26 31 33 30 22 18 21 21 24 22 15 27 33 36 30 37 49 41 41 44 50 48 40 36 34 34 34 33
23 16 14 11 8 9 12 12 12 10 9 10 13 15 17 18 18 24 24 28 30 36 35 18 21 29 36 36 25 14 20 31 40 42 39 43 43 41 44 46 43 40 37 35 35 32 29
22 16 12 9 10 14 12 9 9 8 9 13 15 16 16 17 26 22 29 27 30 36 43 25 32 42 61 59 36 20 20 30 44 48 48 46 50 50 50 42 40 40 39 37 32 29 28
21 15 14 11 17 13 9 10 9 10 13 16 17 17 20 17 23 27 27 25 29 40 37 32 39 43 69 80 54 34 25 31 47 53 59 59 56 49 50 44 42 42 43 35 33 33 34
19 19 19 12 12 10 9 10 10 13 16 19 21 18 22 25 23 27 26 27 35 50 39 24 32 54 53 81 66 46 37 35 53 63 60 69 68 68 64 56 48 53 52 48 46 41 44
22 23 16 13 12 11 9 9 13 17 18 22 23 21 23 22 28 28 27 33 44 43 26 49 61 53 56 77 63 49 46 38 55 72 71 74 76 71 69 73 70 55 55 61 66 66 43
26 21 14 16 12 10 10 9 15 19 21 26 25 23 25 29 31 34 35 41 46 30 47 46 48 48 79 95 77 59 51 42 58 54 63 68 78 73 70 63 59 56 47 44 43 44 41
27 19 12 16 13 10 12 13 18 20 25 29 27 26 30 29 31 37 47 50 41 54 67 59 62 73 89 88 96 61 50 40 55 63 61 64 72 72 65 64 62 59 55 51 54 49 48
26 18 16 16 12 11 13 17 20 22 29 30 29 28 30 29 39 47 58 58 49 44 42 59 92 91 94 86 98 64 53 47 55 57 59 59 78 75 68 57 58 57 56 61 56 61 54
25 19 17 17 13 14 16 19 21 26 31 31 31 32 29 31 39 52 64 57 51 45 53 72 81 87 95 92 96 93 67 49 53 51 50 51 59 76 67 60 58 61 60 57 57 62 60
27 19 17 16 15 15 18 21 24 30 33 36 33 34 33 35 47 56 63 58 44 48 61 80 80 91 97 96 95 98 83 69 60 64 64 61 64 68 69 63 61 60 58 55 58 66 59
28 19 19 18 19 16 17 23 27 32 35 35 35 34 34 38 50 53 54 53 57 67 76 82 93 96 96 98 97 95 87 83 67 70 72 72 68 74 79 71 66 63 59 61 67 66 63
31 21 21 25 24 13 18 25 31 35 37 34 35 39 37 44 47 55 52 58 71 81 82 88 97 98 98 98 99 99 97 91 82 75 73 70 71 69 66 64 60 66 62 62 62 64 59
33 26 25 30 21 12 21 28 33 37 40 38 39 39 38 45 45 51 51 63 78 88 94 97 98 96 97 98 98 98 99 94 91 85 80 76 72 67 66 65 64 63 61 52 48 52 58
38 38 38 30 19 13 22 30 34 40 43 45 45 42 40 37 40 45 48 61 75 94 93 92 95 92 89 89 97 97 98 95 94 89 87 84 76 63 61 62 59 55 48 39 38 46 50
46 40 37 24 19 15 21 31 37 43 48 52 52 46 43 36 37 41 49 51 67 80 77 78 86 84 76 75 78 80 87 82 77 73 64 67 65 59 63 52 48 43 41 43 41 42 53
41 40 36 25 23 18 24 33 40 46 52 57 58 57 51 45 39 41 41 44 53 65 68 68 77 75 71 71 66 64 62 62 54 52 49 48 42 41 45 44 41 49 47 43 40 47 51
40 35 31 34 26 20 26 35 42 46 56 61 64 65 58 52 41 40 46 47 48 53 62 66 71 70 67 63 63 56 57 57 57 52 48 48 45 46 40 36 44 58 57 50 47 51 58
36 37 37 33 28 22 27 37 45 49 60 64 68 71 67 56 44 41 45 53 56 56 57 60 65 67 66 65 60 61 61 56 53 53 46 47 49 47 44 44 45 58 53 48 46 55 62
35 33 34 33 32 29 29 35 46 50 61 68 73 74 72 63 53 46 48 51 57 64 64 63 63 65 66 68 63 63 59 58 61 57 59 56 57 58 52 55 57 62 59 53 51 68 66
35 33 35 33 33 33 28 34 44 52 63 71 75 80 78 68 61 57 53 52 54 56 60 60 62 69 70 68 66 66 65 63 67 67 75 65 67 67 61 66 75 77 69 69 77 71 64
36 38 41 37 35 35 30 37 45 57 68 77 79 84 82 76 71 68 61 58 56 54 51 60 62 69 72 71 70 70 71 68 67 71 65 84 78 75 73 78 83 89 87 84 81 79 76

GFSGBSN_prec_cthk_108.txt.gz
RH
73 66 61 56 48 43 39 33 28 24 22 19 17 14 11 10 8 7 7 6 5 5 4 4 5 5 6 10 9 5 7 6 6 5 5 9 18 27 27 34 42 45 38 42 39 39 36
78 66 61 54 49 43 42 41 39 37 33 26 22 15 11 9 8 7 6 6 5 5 6 6 6 7 15 16 7 8 7 8 7 6 6 5 13 23 25 31 39 38 45 44 43 40 39
77 70 63 52 45 42 37 31 30 28 28 24 20 16 10 9 7 7 6 6 7 7 7 7 7 9 16 10 8 9 9 9 10 9 9 9 10 20 23 29 35 40 46 48 45 40 40
76 72 61 51 44 40 34 31 26 23 22 18 15 12 9 8 7 8 8 7 7 8 8 8 8 14 24 12 12 11 10 10 9 10 10 10 13 18 27 30 38 45 50 47 38 46 43
84 78 64 49 42 39 33 28 24 21 20 17 14 10 9 9 9 9 8 7 10 11 13 15 17 30 25 18 15 16 13 12 13 14 12 13 11 15 26 36 38 45 46 41 41 50 50
88 78 66 51 43 38 30 27 23 20 20 17 13 10 11 10 9 8 8 10 12 13 20 25 32 41 22 17 15 19 22 25 20 28 29 25 19 14 20 34 42 30 39 48 45 46 50
79 73 66 50 42 35 30 26 22 25 21 14 10 11 11 9 8 11 13 15 18 21 31 23 16 22 14 14 16 16 15 17 17 26 31 33 30 18 13 16 28 38 48 49 44 46 48
85 74 61 50 43 32 28 22 27 23 16 11 10 10 10 10 12 14 19 30 28 28 23 18 13 16 14 19 18 16 22 23 19 18 37 44 44 15 14 21 26 37 55 55 58 55 52
75 69 64 52 41 31 28 31 30 21 14 11 11 10 10 10 15 19 28 30 26 28 28 11 19 22 26 32 35 30 50 48 30 24 39 52 30 32 20 22 29 38 52 64 61 59 52
74 68 57 51 33 38 34 33 21 17 15 12 11 11 10 13 22 22 30 22 22 26 34 36 52 65 71 84 51 67 56 66 51 29 37 49 42 48 29 22 31 41 50 59 60 62 52
62 59 54 39 47 37 36 29 21 17 16 10 11 11 12 17 20 29 22 21 26 42 50 36 54 67 62 66 65 66 72 66 69 44 39 34 57 56 40 34 31 38 50 63 62 60 53
61 57 47 51 44 41 34 21 18 17 12 11 13 13 13 23 31 28 22 30 46 64 61 31 39 50 45 43 45 62 53 82 78 47 40 33 60 67 34 49 40 45 57 65 62 60 62
58 57 52 48 51 36 26 21 18 15 12 13 15 15 15 21 23 19 32 46 65 61 27 25 31 35 36 47 58 77 74 61 92 55 32 35 70 68 41 47 49 55 61 79 84 87 59
61 58 49 58 40 34 24 19 18 16 14 15 17 18 24 28 21 19 39 59 60 30 40 55 46 60 67 90 88 75 73 72 69 58 35 50 84 75 55 53 46 50 59 80 68 67 57
64 49 63 47 37 24 20 17 16 16 16 16 23 25 29 21 15 26 47 51 40 45 48 52 60 65 73 76 78 83 82 66 66 28 53 95 91 73 72 52 58 59 67 64 81 74 74
49 63 50 42 33 24 21 19 17 18 17 17 23 32 34 15 16 34 53 49 42 48 54 65 73 81 88 85 93 93 75 51 38 28 56 82 97 87 78 72 69 67 66 85 88 95 96
78 63 49 40 33 24 22 19 19 18 18 21 28 36 38 14 30 42 53 41 51 53 55 65 74 87 94 95 97 89 84 61 27 49 70 86 93 82 77 86 82 89 87 80 74 75 89
71 59 47 37 32 24 23 21 21 21 20 23 32 42 28 20 52 50 42 48 49 51 58 67 79 93 95 97 91 93 91 78 43 56 80 82 91 80 72 71 73 88 90 83 82 66 73
62 57 51 41 34 27 24 23 22 23 23 31 36 35 27 33 49 44 41 54 53 55 58 63 78 87 92 93 94 95 93 80 61 69 78 77 87 91 93 80 75 76 68 71 82 83 74
63 58 48 45 35 26 24 25 25 23 26 31 31 42 41 39 36 42 48 53 53 52 55 60 74 80 83 86 90 98 96 80 66 64 64 67 76 75 96 86 70 79 73 76 66 80 66
59 53 42 41 37 30 23 27 26 26 30 28 37 39 34 45 50 35 51 52 53 50 50 56 63 74 80 90 92 92 94 80 72 74 81 79 84 97 96 77 68 81 75 72 72 68 69
68 58 52 54 42 30 24 27 26 32 28 35 22 49 39 35 31 37 52 49 51 50 49 50 57 63 77 76 87 94 93 86 78 84 85 84 90 83 97 86 78 91 65 58 72 76 84
59 51 43 44 44 38 25 31 32 36 28 41 38 31 38 49 36 40 50 37 43 47 43 43 54 54 65 70 79 80 86 83 80 84 87 86 77 78 71 65 67 69 70 81 74 76 79
73 67 59 52 42 37 29 30 37 30 32 39 43 46 47 49 39 42 38 35 37 43 46 43 46 50 51 68 75 74 77 72 71 74 83 84 77 71 70 65 89 86 83 80 83 83 79
65 62 49 52 48 34 30 37 31 33 35 37 40 46 53 50 47 41 37 37 38 45 47 49 45 44 47 58 71 82 75 75 67 59 61 74 75 72 70 70 81 77 79 82 86 88 75
63 65 48 45 47 41 32 30 31 37 35 39 45 45 51 51 64 45 38 48 46 44 50 50 45 46 46 53 71 75 68 68 75 78 66 63 68 62 66 62 87 91 77 60 67 79 75
72 66 49 44 49 44 30 27 35 35 35 43 49 48 52 56 61 47 49 53 46 47 53 52 45 48 46 58 70 71 79 69 77 73 63 69 66 72 67 81 80 74 60 53 67 88 86
82 75 65 59 53 46 30 33 35 33 36 43 50 51 56 58 57 50 50 48 48 49 50 52 55 53 49 55 52 52 61 57 91 69 67 64 94 71 73 81 88 74 62 68 80 81 77
65 66 59 53 49 40 37 32 32 35 38 44 58 57 59 58 57 52 49 48 48 48 47 45 58 62 59 60 58 56 68 63 63 98 67 73 68 72 66 77 81 82 84 84 81 81 80

GFSGBSN_prec_cthk_114.txt.gz
RH
79 76 78 75 63 60 60 64 62 54 47 43 45 42 38 43 44 39 32 26 22 21 19 16 12 10 9 10 6 7 7 8 7 8 8 8 9 14 20 18 15 11 8 11 13 19 21
73 79 73 72 67 60 52 55 65 56 49 48 48 47 47 44 38 32 28 23 20 19 19 17 18 17 15 15 8 8 10 9 9 9 9 9 9 7 8 10 16 20 18 14 12 13 17
68 72 72 74 66 56 55 55 55 48 51 50 40 37 37 34 30 27 24 20 18 16 17 17 18 19 18 10 10 9 9 8 9 10 11 11 11 11 10 11 9 12 20 18 17 15 17
76 72 74 78 78 63 65 53 50 51 50 50 43 34 33 29 26 26 24 21 18 17 17 17 18 22 19 14 16 15 16 15 15 15 12 13 13 14 16 16 15 15 20 22 12 18 19
70 66 84 76 84 82 70 52 51 49 48 53 42 34 32 24 26 26 24 23 21 19 18 19 20 26 20 17 19 18 20 18 15 16 20 20 18 16 16 23 23 18 20 22 19 21 25
76 74 67 72 83 82 71 66 48 53 53 51 41 39 30 27 29 27 26 26 22 21 20 19 24 23 17 14 15 16 14 20 21 19 19 24 24 27 33 33 31 20 24 22 26 22 32
67 80 75 78 86 80 69 75 58 63 46 38 40 38 31 29 31 38 28 25 23 23 17 16 15 18 19 20 20 20 20 19 23 29 30 30 29 31 36 35 33 26 25 24 23 20 31
60 71 84 72 86 75 77 81 73 57 49 43 43 37 28 27 31 34 31 27 28 25 21 18 21 21 20 18 18 11 18 30 36 37 43 45 44 32 25 36 52 43 38 27 17 17 34
52 73 81 96 81 74 82 84 67 55 55 46 42 29 28 35 38 32 36 32 26 20 24 23 19 18 19 17 14 14 24 26 33 45 54 75 53 63 50 27 45 52 43 29 20 13 24
74 69 72 91 91 87 91 75 69 66 49 42 34 34 32 26 33 35 27 26 25 27 31 17 19 24 20 20 18 23 25 29 39 41 64 77 69 72 71 39 46 79 47 39 21 25 31
84 81 69 92 96 82 77 78 64 51 43 38 39 32 32 37 31 26 25 25 29 31 27 16 17 19 25 29 28 33 42 44 47 42 61 47 41 59 87 31 48 68 74 50 32 33 55
94 91 95 94 97 91 91 70 65 48 42 41 36 31 32 32 27 25 26 30 31 27 24 20 19 24 26 31 37 40 53 61 56 55 51 48 43 56 53 37 46 64 60 58 63 61 74
93 97 90 95 98 95 81 70 52 46 44 42 34 33 34 25 22 23 29 32 27 28 21 25 26 28 32 35 45 55 63 70 74 69 66 58 57 51 44 39 52 65 75 83 80 91 74
98 96 94 96 97 89 73 52 46 42 47 33 39 32 28 22 22 25 32 32 27 24 27 29 35 36 41 44 55 66 74 74 72 71 71 68 48 31 33 44 64 67 69 73 77 85 71
98 97 97 96 87 74 58 49 46 53 35 44 33 35 22 22 21 29 34 32 27 29 32 38 36 43 50 59 71 76 72 70 80 80 74 66 44 47 62 71 75 68 71 53 67 80 76
98 97 94 84 77 61 55 52 56 38 46 31 42 32 27 24 27 35 35 31 32 34 39 42 50 55 65 64 72 78 67 80 82 67 62 63 60 63 74 74 71 76 59 70 80 87 90
97 92 84 81 59 59 60 57 37 46 33 35 41 39 30 28 33 37 37 32 34 40 38 42 52 62 69 77 69 79 76 78 85 74 77 81 81 75 81 77 78 68 64 70 69 79 90
89 87 88 71 69 58 59 41 48 32 32 44 42 47 23 27 42 42 38 33 35 37 35 41 48 65 73 72 71 82 87 88 89 89 84 86 96 94 95 89 80 77 68 65 73 78 85
88 90 75 74 59 65 52 46 34 30 45 42 46 43 28 44 48 42 35 36 36 36 36 42 54 61 62 72 76 81 85 81 78 81 85 86 97 92 96 93 88 88 81 75 86 93 98
93 72 72 65 75 60 44 35 29 47 42 47 42 45 33 39 39 37 36 37 36 34 36 41 51 55 59 69 78 82 85 75 73 71 66 75 84 90 91 91 95 98 88 88 95 97 96
87 83 81 76 73 48 37 31 49 40 41 42 39 44 38 42 38 32 35 36 32 33 34 40 46 49 52 71 75 82 83 78 71 64 66 73 88 92 93 98 96 94 96 98 98 97 95
90 93 72 85 66 40 36 47 44 42 38 40 35 42 32 38 39 32 38 38 31 34 35 39 42 43 48 58 65 77 78 79 82 70 76 77 93 98 98 98 96 97 97 98 98 98 97
93 88 78 83 56 49 42 46 47 36 36 42 41 39 38 37 35 36 38 32 30 36 35 36 41 39 45 52 61 63 69 76 79 85 84 80 79 94 97 97 92 87 98 96 96 96 96
94 89 87 78 62 49 45 53 39 35 37 44 42 44 44 44 41 35 34 32 29 36 41 39 34 36 38 43 58 64 60 71 75 77 81 81 78 82 97 90 91 98 98 94 93 95 95
93 93 84 76 68 56 57 45 33 37 43 46 43 41 45 48 44 39 37 36 31 33 37 35 31 33 35 47 63 70 72 69 73 76 73 78 83 86 97 92 97 91 95 95 93 95 95
94 88 75 72 71 65 55 33 36 41 42 46 43 42 46 46 48 45 41 37 35 35 35 32 32 31 35 52 74 83 86 81 80 72 68 81 84 88 94 91 96 95 89 82 73 82 86
96 92 85 82 72 51 50 41 38 47 44 42 39 37 41 44 47 45 40 36 36 38 36 34 32 35 35 48 68 84 85 88 94 83 78 84 88 94 93 90 92 88 81 75 69 83 86
95 95 91 79 70 65 56 41 47 44 42 43 37 36 37 40 47 44 34 34 36 35 38 32 36 42 41 53 62 73 85 87 95 85 79 87 86 86 87 86 87 82 71 74 79 79 79
90 83 85 77 59 51 46 44 44 44 43 37 36 38 38 40 40 38 34 35 37 38 38 42 47 49 51 52 57 61 79 86 84 96 78 79 77 80 77 80 81 81 79 79 81 82 79

GFSGBSN_prec_cthk_117.txt.gz
RH
67 69 65 71 74 70 69 61 54 51 49 51 53 42 45 45 41 40 42 41 35 32 29 24 20 19 19 18 16 15 12 11 11 10 10 10 10 14 19 15 14 10 8 8 10 11 12
66 65 65 75 72 70 69 62 56 47 46 44 48 41 47 46 42 42 40 37 32 29 27 24 23 20 20 21 19 18 17 16 16 15 13 13 12 11 11 10 13 15 15 14 12 12 17
65 66 63 64 66 65 64 61 59 49 44 46 38 38 41 41 36 34 32 31 27 26 25 25 23 21 19 18 21 22 21 20 18 15 14 13 13 13 12 14 13 12 12 10 7 10 13
46 62 62 71 61 68 60 66 65 64 59 44 42 39 34 34 37 32 29 28 25 26 26 27 27 23 22 25 24 22 20 19 18 17 16 16 13 15 16 16 16 16 16 16 10 12 13
30 35 49 66 76 70 68 65 68 70 62 57 46 35 30 35 37 31 29 23 23 25 26 29 32 31 29 27 22 19 18 18 17 17 18 21 23 21 20 21 22 21 23 21 14 11 14
36 35 37 50 67 78 68 82 66 82 65 54 54 43 35 32 28 32 27 21 24 26 31 31 35 34 27 24 20 17 16 15 18 16 19 20 20 26 31 36 39 30 27 22 22 12 18
35 39 40 46 53 71 76 75 74 80 68 58 56 56 36 25 31 34 27 27 25 28 29 27 31 33 29 22 15 15 14 14 19 20 20 20 24 29 23 28 36 42 47 46 32 20 18
39 42 46 47 49 67 89 82 75 75 80 59 75 54 36 33 38 34 28 26 25 29 29 34 34 27 21 20 16 14 12 17 20 22 24 31 35 29 36 36 40 38 49 48 43 25 32
40 42 56 58 48 57 74 89 86 69 75 73 56 54 42 41 40 34 33 31 30 36 36 32 26 18 20 19 17 17 22 23 25 30 32 36 24 35 55 50 57 54 39 34 57 42 46
41 51 59 54 67 53 59 90 81 83 86 65 52 52 50 40 39 38 33 30 34 34 37 24 21 20 19 21 22 21 26 28 33 35 37 38 33 49 58 47 56 60 40 45 60 69 49
47 52 64 74 66 56 63 62 78 94 84 70 60 57 42 37 42 38 34 33 35 35 30 20 17 17 21 26 28 28 31 34 37 42 50 41 38 50 46 40 58 54 42 60 82 84 54
61 61 67 82 68 75 85 71 88 90 75 70 58 45 37 37 38 39 34 37 36 31 25 20 19 22 24 27 33 36 40 41 43 44 49 47 46 50 45 52 57 51 44 75 76 67 65
70 77 99 73 97 86 85 88 74 84 77 60 45 42 40 42 42 36 35 35 31 31 21 22 23 26 32 32 36 40 47 52 58 66 65 55 49 44 45 58 63 51 66 86 78 79 77
90 92 96 88 90 88 93 96 90 85 70 53 52 41 46 39 39 31 35 38 29 24 23 24 28 32 37 37 41 49 54 58 70 76 78 73 58 44 40 46 44 44 66 83 80 77 72
95 98 98 97 99 98 97 95 90 75 54 52 45 47 37 38 29 35 36 37 25 26 27 31 33 41 44 42 51 57 60 64 79 80 84 76 62 52 59 62 60 68 68 60 77 76 92
95 97 98 95 98 98 97 92 75 53 57 48 50 44 48 36 32 36 36 29 28 31 32 34 44 46 57 52 59 63 63 68 87 85 81 80 93 67 74 71 67 71 76 82 84 78 87
96 97 97 97 97 98 86 65 52 56 51 54 49 51 46 34 36 38 38 31 31 34 32 35 43 53 57 63 63 64 69 74 85 82 83 93 90 78 85 73 74 80 76 78 75 79 97
98 97 98 97 96 83 67 53 55 61 52 55 52 58 44 34 40 39 38 34 33 34 32 36 42 46 55 60 63 68 76 80 78 77 75 81 90 94 88 85 89 88 73 66 73 74 88
97 97 96 91 81 66 57 60 65 49 54 55 51 51 36 37 45 42 37 38 37 32 32 36 40 47 50 62 69 74 81 72 73 75 73 72 89 87 81 85 84 92 81 71 70 80 90
97 96 94 85 65 58 68 68 48 55 52 47 57 46 38 44 42 36 38 38 34 30 31 32 37 44 50 56 68 78 83 74 71 70 70 82 98 95 96 97 95 94 86 86 80 92 96
97 97 92 72 66 66 75 48 52 46 42 58 48 49 33 45 42 37 37 34 32 29 28 31 38 41 45 54 63 76 75 75 70 71 74 87 98 98 97 93 91 94 96 98 93 96 95
97 92 77 84 64 66 58 56 48 39 50 57 48 42 35 34 35 36 38 35 30 29 30 31 35 40 41 48 54 64 67 70 78 77 77 83 97 99 97 93 92 93 98 98 96 94 94
97 85 81 70 68 66 59 45 36 41 56 54 41 32 36 40 37 37 40 35 30 31 33 32 32 36 38 43 49 56 63 69 81 86 87 80 87 95 97 91 85 86 97 97 96 97 95
97 89 89 70 78 64 43 40 40 52 60 47 32 32 37 39 35 34 34 32 30 30 34 31 31 31 31 35 46 59 65 72 81 80 80 85 85 86 97 92 91 98 97 97 96 97 97
97 93 83 81 78 53 42 42 53 57 57 37 36 38 40 43 41 39 38 37 34 30 32 30 29 30 28 33 52 63 68 70 74 78 73 82 88 97 94 93 97 94 95 96 94 93 91
98 95 87 89 83 55 47 52 57 60 47 37 37 38 41 41 44 43 40 37 33 32 33 30 27 27 28 38 59 78 85 85 85 74 69 79 89 94 95 88 95 96 92 85 81 88 89
98 97 92 94 79 66 49 53 68 51 47 38 38 36 40 43 45 44 44 35 31 33 33 30 28 30 30 39 58 81 85 89 91 83 83 83 88 96 92 91 92 92 86 81 78 86 87
98 98 96 93 79 66 53 65 57 44 43 41 40 38 38 42 43 43 37 29 31 31 33 29 33 37 37 43 55 70 81 90 96 85 84 88 87 92 90 88 90 87 83 81 85 85 84
98 98 96 88 79 72 65 62 48 49 44 45 40 36 32 38 42 38 32 32 33 35 33 36 39 44 45 46 49 64 76 83 87 94 79 80 83 83 87 86 87 86 85 84 83 82 83

GFSGBSN_prec_cthk_123.txt.gz
RH
41 53 60 56 60 60 64 64 62 61 68 67 63 55 47 37 34 33 36 35 36 39 37 33 31 28 26 25 24 24 23 22 21 20 19 18 19 21 21 22 22 23 21 18 16 15 13
26 25 36 48 50 51 57 61 64 61 61 67 65 60 53 44 34 33 32 30 34 38 34 30 25 23 23 22 24 25 25 25 25 25 23 21 20 20 20 19 18 18 17 17 16 15 15
25 25 30 32 29 40 42 56 61 64 65 65 63 60 50 47 38 36 28 27 24 19 18 24 24 22 22 24 24 24 25 27 27 27 26 26 24 22 21 20 19 19 18 15 14 14 14
23 22 27 28 23 34 31 43 48 62 59 74 62 58 49 45 46 43 37 31 24 19 19 17 19 23 20 21 21 22 24 25 24 22 21 23 23 24 22 20 20 19 18 18 14 15 14
25 26 25 27 32 41 27 39 41 56 58 71 63 57 49 46 50 49 39 38 26 28 27 16 15 19 22 22 21 21 21 21 20 21 22 21 24 24 23 24 25 23 20 18 18 17 19
24 25 26 25 27 29 38 44 28 45 57 64 83 62 61 44 46 47 41 43 38 35 27 21 16 19 22 23 20 21 23 24 26 27 24 23 22 22 23 24 23 20 21 20 23 20 26
18 16 19 22 24 29 39 44 33 41 51 64 67 74 71 59 55 47 45 47 46 35 28 24 19 21 22 22 23 25 24 25 25 24 24 23 20 20 20 20 18 21 25 26 19 17 29
14 12 12 14 16 21 29 34 34 45 45 59 74 62 69 61 63 50 50 52 53 40 31 31 27 24 25 26 28 29 28 26 26 26 27 25 23 20 21 21 23 26 34 28 22 20 29
17 13 12 11 11 15 21 31 44 49 50 47 60 61 89 72 80 71 67 60 53 44 33 32 32 29 29 30 30 27 26 27 28 29 28 25 23 26 29 27 28 28 37 34 36 26 26
13 11 10 9 9 12 18 32 48 56 44 49 50 62 65 72 67 81 75 67 48 46 39 31 31 31 30 29 30 30 30 30 31 29 30 31 31 34 33 32 33 37 38 38 36 43 43
11 8 6 7 8 9 14 23 37 41 47 51 62 51 61 74 84 85 76 56 50 45 37 32 30 29 30 31 32 31 31 33 32 32 36 33 35 36 38 35 38 39 41 39 39 48 48
12 7 5 5 9 9 15 22 30 35 56 55 64 60 63 64 79 77 70 58 53 44 34 36 34 34 34 34 33 32 33 33 33 37 39 35 37 39 41 45 41 43 45 41 44 50 63
14 7 7 13 18 18 22 28 34 45 62 66 65 74 64 78 79 80 66 63 51 45 38 42 41 38 38 39 36 34 35 39 43 46 45 39 41 43 48 53 52 53 51 42 49 72 65
11 10 21 25 26 23 32 38 44 57 62 88 77 80 83 68 80 66 70 62 49 47 44 46 44 41 41 40 37 37 39 43 48 54 56 52 52 45 49 58 58 62 50 49 54 52 52
21 31 39 37 35 34 47 51 54 61 74 73 77 76 84 64 61 65 65 52 46 45 42 47 46 47 44 37 37 41 44 47 54 59 62 61 60 50 53 60 67 68 56 52 60 59 72
44 58 62 55 55 51 57 60 67 81 81 86 97 95 90 63 63 58 64 52 48 49 48 44 48 43 44 37 39 42 47 51 56 59 62 65 68 53 58 64 71 68 57 69 72 81 91
71 78 90 88 76 71 73 77 84 81 87 93 97 90 89 78 65 62 66 51 48 49 42 44 45 42 38 41 44 44 51 53 57 58 59 65 74 60 65 71 73 75 69 71 73 79 87
82 96 98 96 93 89 91 94 91 94 99 97 95 92 80 65 71 63 47 50 55 52 43 43 41 37 38 44 46 49 54 55 55 58 61 70 78 74 70 69 76 77 77 74 80 73 80
96 93 92 95 95 97 98 98 98 99 98 95 90 86 79 74 71 68 59 58 54 49 49 44 39 36 38 45 46 54 55 54 56 60 72 79 81 73 61 70 71 88 87 92 82 81 89
89 98 98 97 98 97 97 97 98 97 95 84 76 87 81 80 69 57 60 57 52 50 44 41 39 36 37 41 47 50 56 54 59 64 73 84 82 77 78 83 85 89 86 82 89 90 93
86 98 98 97 98 98 98 97 96 95 88 75 68 76 72 81 69 67 60 48 52 50 44 35 34 34 37 40 41 46 54 57 64 70 75 84 91 92 85 87 91 93 92 90 92 98 95
84 96 97 98 98 98 97 93 89 88 82 72 66 70 67 71 66 58 54 53 47 42 35 32 31 33 34 34 30 35 46 56 66 70 78 85 93 98 93 89 94 96 97 97 94 92 94
86 97 98 97 93 87 84 81 86 87 79 70 61 62 64 64 63 58 53 51 47 42 35 29 31 31 31 30 31 32 44 55 63 71 77 88 94 94 95 95 90 89 97 97 93 93 94
86 97 94 86 82 79 78 80 82 78 70 65 62 51 64 61 49 52 49 46 45 36 32 32 32 29 27 26 28 41 50 56 64 70 74 81 89 94 92 97 93 97 97 97 95 96 95
87 96 92 79 73 70 75 77 82 71 71 64 46 56 46 54 48 51 47 42 39 32 33 35 31 25 24 22 34 43 48 55 63 72 73 81 88 94 92 91 95 96 94 96 96 96 95
90 94 87 71 72 82 78 62 66 74 68 52 51 55 50 43 52 49 45 42 35 32 31 30 28 24 22 25 38 47 49 58 66 68 74 74 85 96 86 88 91 95 95 95 93 90 87
92 94 90 75 84 71 59 66 66 59 45 48 61 59 39 43 47 44 43 40 33 29 28 29 27 25 24 30 44 50 56 61 66 69 74 70 84 95 93 91 92 94 90 88 91 91 86
98 97 90 73 81 64 63 56 54 47 56 66 62 46 39 46 50 47 42 37 27 25 24 27 27 30 30 35 41 48 56 64 70 72 75 74 82 90 96 94 94 94 91 82 83 82 79
98 98 94 86 88 69 51 48 52 65 66 64 52 46 46 46 49 47 43 29 24 24 26 30 31 33 32 35 40 47 55 62 66 79 75 75 75 82 90 94 96 96 93 86 84 83 81

GFSGBSN_prec_cthk_126.txt.gz
RH
24 30 39 50 58 62 62 69 63 60 63 60 55 56 58 58 50 44 37 32 30 35 35 37 34 30 27 26 24 23 24 24 23 22 23 23 22 21 21 21 20 20 19 20 19 18 18
16 21 22 29 31 43 52 54 52 58 54 62 59 54 52 54 52 47 40 33 34 34 35 31 32 29 26 23 21 23 24 23 23 22 22 23 23 23 22 21 20 20 19 18 17 16 16
16 16 20 21 24 25 30 40 44 52 55 55 59 60 58 51 48 46 42 37 33 31 31 22 19 16 15 19 21 22 20 18 18 20 23 23 23 22 22 22 23 21 19 17 16 15 14
21 20 21 21 24 29 29 32 30 35 47 51 56 60 60 59 50 43 40 37 38 37 27 23 22 19 16 17 20 21 19 17 17 17 17 18 19 21 22 22 20 20 19 19 18 17 16
28 25 24 24 25 26 32 30 29 30 38 44 51 53 64 65 54 45 39 35 43 42 36 30 25 21 22 18 17 17 18 19 18 19 20 20 21 23 23 23 20 22 20 18 18 18 18
26 26 25 25 26 26 27 30 30 37 44 38 43 51 66 63 52 49 44 38 39 41 42 39 29 24 23 22 19 20 20 19 21 23 24 23 22 21 20 19 16 16 16 15 16 18 18
21 22 22 16 19 21 24 28 28 34 37 32 52 50 64 67 57 56 57 54 48 43 45 43 30 27 26 23 21 21 20 21 24 26 25 24 21 19 18 19 18 17 15 14 16 21 18
14 15 15 14 11 13 14 19 23 25 32 39 57 43 57 65 59 68 61 63 57 50 42 40 34 32 32 27 26 24 23 25 28 27 26 25 22 20 20 20 18 17 18 16 18 24 25
16 14 16 17 17 10 11 14 16 18 25 40 47 48 49 71 62 63 59 54 48 62 59 42 39 36 37 30 30 28 28 29 31 30 27 24 22 23 23 21 23 21 22 21 21 24 24
18 18 18 15 13 11 11 12 14 17 23 27 39 39 51 53 73 67 61 75 71 80 65 49 43 38 36 32 30 28 30 32 34 32 29 26 24 24 22 25 26 26 25 26 26 27 24
19 19 15 13 11 10 9 9 11 14 22 26 32 37 53 64 65 84 68 76 88 69 69 48 45 42 37 34 34 34 33 35 34 31 32 30 26 26 28 32 31 30 33 33 30 33 30
22 19 13 11 9 8 7 8 10 11 21 22 28 39 78 67 52 58 70 92 80 65 65 52 45 40 37 37 38 38 36 37 35 34 32 29 28 32 32 34 38 36 39 36 39 38 44
22 20 12 9 6 6 7 8 8 11 25 25 28 41 68 68 64 63 94 82 82 66 57 53 48 42 39 40 43 41 38 40 40 35 33 32 31 35 38 42 42 47 49 46 47 60 48
24 22 11 9 9 8 8 9 11 18 28 29 31 51 57 69 76 79 70 74 71 53 43 49 46 46 45 48 47 46 44 45 43 36 35 36 42 36 39 45 44 54 54 45 50 42 41
31 25 17 16 26 32 30 29 30 31 35 39 43 52 62 82 76 80 80 79 74 47 51 54 58 55 53 49 48 47 43 43 46 42 46 47 43 40 43 48 51 64 62 50 49 49 58
39 34 21 29 46 44 46 46 43 39 40 40 47 61 87 88 91 90 78 76 66 56 52 54 54 52 58 51 53 49 45 44 48 45 47 48 55 44 51 52 55 64 70 70 63 64 64
42 38 36 50 55 59 54 57 46 42 46 58 74 92 86 94 79 90 88 65 48 65 55 49 50 51 48 52 50 47 44 44 44 44 46 51 57 52 51 61 69 82 76 66 62 61 67
46 46 53 69 83 84 66 62 62 66 72 81 90 84 97 95 86 91 71 52 46 53 58 57 54 45 50 50 49 44 42 46 46 46 50 54 64 62 57 57 69 73 79 69 73 70 66
46 55 70 83 98 94 79 77 78 77 85 86 89 93 89 91 96 89 74 61 49 54 56 51 44 46 48 54 52 52 43 44 45 50 55 63 64 55 53 61 59 68 84 88 84 77 82
48 57 77 97 94 97 92 92 91 90 94 92 91 93 97 98 96 82 74 69 58 49 55 52 45 47 47 52 51 49 43 43 48 52 56 65 62 67 69 72 70 78 77 71 77 93 94
53 58 81 97 98 98 95 96 97 98 95 94 94 93 90 94 92 81 66 55 58 61 55 46 54 46 43 47 43 44 43 47 53 59 60 66 74 74 73 76 76 93 92 88 88 92 91
59 62 81 94 98 98 97 97 97 98 97 96 96 96 94 89 78 71 72 70 64 54 54 49 43 48 43 31 26 35 40 48 56 57 62 69 76 84 89 89 87 94 95 95 90 90 88
63 69 84 94 97 98 98 98 97 97 95 87 85 89 86 82 78 71 65 68 56 49 56 51 45 36 30 28 26 31 39 46 50 54 58 68 75 80 92 97 92 92 96 97 92 92 89
69 76 91 96 95 98 98 98 98 96 90 81 79 79 77 81 75 73 62 51 50 55 43 38 35 36 30 25 28 38 45 48 51 54 54 61 70 79 87 94 94 97 96 95 93 94 92
73 81 95 97 97 97 95 97 96 95 86 78 79 72 72 73 67 63 55 53 51 47 44 45 36 27 22 23 38 43 47 48 51 53 56 58 69 79 87 86 93 96 91 94 96 95 94
75 82 95 92 94 95 96 96 95 90 81 76 68 60 66 58 56 52 52 51 50 52 47 37 31 24 22 22 37 39 42 40 53 54 58 61 64 79 82 85 86 86 90 93 91 92 89
77 84 91 84 88 91 89 89 90 85 81 62 58 59 53 51 53 52 49 48 44 39 31 31 28 25 21 27 38 41 42 44 51 48 56 58 64 81 82 85 83 84 93 95 95 95 89
80 90 87 78 86 89 86 73 81 85 70 51 60 50 48 50 53 58 52 44 42 37 28 28 25 25 26 30 37 41 44 49 52 51 56 57 66 78 85 89 91 91 95 89 86 88 84
84 94 89 84 88 72 66 77 80 69 57 54 64 59 41 43 51 51 45 41 34 28 23 25 28 26 26 31 32 37 46 51 47 60 54 62 64 70 84 89 89 93 95 90 83 79 77

GFSGBSN_prec_cthk_129.txt.gz
RH
20 24 32 37 45 51 54 58 63 65 65 64 58 59 60 56 55 58 54 46 39 29 30 36 36 28 26 30 29 25 22 23 25 25 26 25 24 23 22 22 22 21 20 21 21 19 18
15 15 17 21 22 27 33 44 49 48 57 56 54 56 56 57 54 53 53 47 43 32 29 33 32 28 29 28 25 19 22 21 23 22 20 20 22 22 21 21 21 20 21 20 19 18 18
14 14 14 16 18 21 23 25 34 39 43 47 49 56 54 61 56 53 51 51 45 40 32 28 28 25 24 22 16 16 18 19 19 18 18 18 18 19 19 18 20 18 18 18 17 17 16
22 20 17 17 17 19 25 24 31 28 29 40 41 47 55 52 62 61 51 47 47 39 36 31 25 22 22 19 18 16 17 20 20 18 15 17 17 18 19 19 17 18 18 20 18 18 17
21 24 25 25 22 22 24 29 27 29 32 32 38 40 51 52 58 65 52 46 47 40 36 37 35 34 26 23 20 21 17 16 16 18 19 17 18 20 21 21 19 18 19 19 16 16 16
20 22 25 27 28 26 26 28 29 31 32 30 38 33 43 51 57 59 57 51 49 45 40 39 39 40 30 25 23 19 19 19 19 21 21 21 21 21 21 21 20 18 15 14 14 14 14
21 19 24 26 27 27 24 26 28 28 28 30 30 34 51 44 59 62 60 51 59 51 48 48 35 32 31 26 23 22 21 22 22 23 23 24 21 20 21 19 17 15 15 14 14 15 16
22 19 18 19 19 24 23 18 20 22 24 26 29 34 42 45 52 53 64 62 64 55 43 48 45 37 35 29 27 25 25 27 29 26 27 23 25 24 19 19 18 17 19 19 19 19 18
20 18 13 12 12 13 12 14 13 14 17 19 22 28 32 39 56 67 57 68 64 58 67 66 49 44 40 33 28 30 29 31 28 27 26 24 27 25 22 21 20 21 21 20 20 19 20
19 18 17 17 14 12 13 13 13 14 14 14 19 24 27 45 57 65 54 69 74 66 82 60 47 44 42 42 36 29 29 32 32 29 28 25 28 25 23 22 22 25 23 21 23 23 23
20 16 15 15 16 12 12 11 11 11 12 15 19 25 22 35 53 62 56 56 87 70 96 57 50 52 49 46 45 42 37 34 34 33 29 37 28 25 24 26 24 26 26 25 25 26 27
19 17 16 14 14 11 10 9 10 10 11 15 21 25 28 42 48 56 49 52 57 90 94 62 54 50 54 51 50 48 43 37 40 37 33 31 29 26 27 25 27 27 30 33 32 35 35
16 14 14 15 15 11 10 10 11 10 11 15 23 25 26 32 41 44 54 76 78 87 73 62 58 45 49 45 49 47 43 41 38 38 37 34 31 26 26 29 33 35 41 47 44 53 46
17 15 17 18 14 10 9 10 9 12 14 18 23 31 35 37 40 44 72 93 90 49 62 46 50 57 48 52 54 50 45 46 46 42 48 41 45 28 27 28 36 39 44 47 46 38 41
20 19 18 18 12 8 9 10 11 18 23 24 32 40 42 40 43 55 82 96 67 49 51 45 55 60 62 59 59 53 45 48 52 43 43 38 33 30 28 31 37 49 49 49 49 44 48
20 22 20 16 11 11 15 20 27 36 35 32 36 42 44 47 46 68 88 72 61 62 44 49 60 58 64 56 58 55 52 55 55 46 38 40 46 35 36 39 42 44 55 62 63 66 63
23 24 24 21 13 19 32 36 49 58 47 40 40 46 53 49 59 79 80 69 68 59 53 56 53 50 62 61 67 58 58 58 54 46 40 40 41 44 42 46 52 59 61 66 60 60 65
27 29 31 27 19 37 45 61 77 71 58 51 47 54 56 54 74 79 71 85 57 61 72 64 61 67 72 63 54 57 55 54 50 45 44 44 53 53 49 47 49 53 61 74 73 67 73
34 36 37 38 36 62 77 89 88 80 72 59 61 58 63 75 72 70 81 81 70 75 71 62 59 66 65 71 68 61 55 55 45 47 51 48 56 58 58 59 48 54 59 68 79 90 76
38 39 45 49 56 92 99 96 86 80 69 65 61 73 72 74 80 85 84 73 70 66 65 63 57 66 64 62 54 61 53 43 46 50 47 53 50 53 59 64 52 57 57 64 74 86 93
42 42 50 58 71 95 98 95 85 79 77 77 74 71 64 79 95 90 80 79 68 75 69 66 58 52 52 54 51 52 44 48 54 52 51 58 59 60 54 55 65 71 76 81 84 84 87
46 46 50 63 78 97 98 98 98 90 87 89 87 86 81 83 82 86 85 83 75 74 67 59 51 51 42 43 41 40 55 54 53 53 60 58 69 67 71 70 72 75 83 88 83 82 87
50 50 54 65 83 98 98 98 98 98 98 97 94 91 89 96 94 92 92 87 80 74 59 56 55 47 53 47 44 48 44 50 51 52 55 58 68 66 72 80 76 76 85 91 86 83 84
54 57 60 71 90 98 98 98 98 97 97 98 98 97 94 96 94 92 84 80 77 73 69 63 62 58 52 46 32 35 39 44 45 46 48 57 56 61 82 77 83 89 80 82 89 89 89
61 63 68 84 97 97 98 98 97 96 94 95 96 94 91 94 89 84 79 76 75 72 61 61 58 58 44 33 41 46 48 47 46 48 50 48 53 61 74 79 84 86 81 84 88 91 90
64 70 76 96 97 98 98 98 98 95 94 93 89 90 86 86 86 78 78 75 70 63 68 67 57 37 38 28 40 39 46 40 53 51 48 53 50 59 65 72 81 75 75 78 82 90 87
70 73 82 96 97 98 98 98 98 95 91 89 82 85 89 82 78 74 70 65 61 62 55 49 49 39 27 27 36 39 46 43 55 50 54 55 55 59 64 70 82 78 79 82 92 95 85
76 78 86 94 97 98 98 98 95 92 85 83 77 75 79 75 74 76 65 60 62 58 61 54 38 31 24 30 31 43 47 46 48 45 45 51 57 60 60 69 86 77 84 89 93 87 85
78 80 88 91 96 96 94 92 96 93 74 70 70 72 69 60 62 58 58 52 56 51 39 34 35 24 25 29 35 46 44 47 44 55 40 51 46 66 63 77 83 85 90 91 89 86 84

GFSGBSN_prec_cthk_132.txt.gz
RH
27 29 31 34 40 46 50 53 57 57 60 67 66 66 64 60 56 56 53 49 52 50 44 33 28 29 30 34 29 29 25 22 23 22 25 24 23 22 21 22 22 22 21 23 22 22 20
18 18 18 17 17 18 23 26 39 45 50 57 59 59 60 58 57 54 53 47 46 43 43 40 31 27 29 32 29 29 21 12 14 19 22 23 20 19 17 18 19 17 16 16 16 16 16
19 18 16 14 14 15 16 18 19 29 33 37 46 45 51 55 56 57 54 54 47 45 40 40 36 31 28 26 28 27 18 14 13 15 17 20 18 15 16 17 17 17 16 16 16 16 16
21 24 23 17 15 15 16 16 20 22 25 28 35 40 44 43 49 53 53 57 52 44 40 39 33 29 33 27 26 20 18 16 18 15 16 17 17 17 17 18 19 18 18 20 17 16 16
20 19 20 19 20 18 19 19 21 27 27 25 28 35 36 39 44 52 55 51 55 49 41 37 38 37 33 28 29 26 21 18 17 16 16 17 16 17 18 21 19 19 19 20 20 17 13
20 19 18 20 22 24 22 21 23 26 30 33 31 35 41 42 44 44 50 57 51 49 47 48 46 39 32 28 26 26 22 19 17 19 21 22 21 22 21 21 21 20 19 18 15 12 14
27 24 18 18 21 24 26 27 26 27 29 31 33 34 34 43 47 48 49 52 52 60 43 52 46 35 27 27 25 21 21 23 22 23 23 25 25 22 20 21 20 17 13 14 14 15 15
28 27 24 21 18 20 22 24 26 26 26 28 30 31 32 36 44 51 50 55 48 50 48 49 53 49 41 33 35 32 28 27 27 30 27 28 27 23 22 20 16 16 17 19 19 17 17
26 26 25 22 19 16 17 17 17 19 19 22 25 27 30 33 44 52 52 53 50 48 52 55 58 56 39 38 36 33 28 30 29 29 32 30 28 26 26 21 18 20 22 22 21 17 15
20 20 20 19 15 13 17 19 15 15 16 17 20 24 28 30 35 39 45 48 54 53 73 48 49 39 42 46 47 46 35 36 34 33 35 31 28 24 25 20 22 22 27 24 21 24 22
17 18 18 13 11 11 11 12 12 11 13 15 18 20 28 25 35 34 35 51 56 66 87 49 49 41 46 48 52 40 36 37 42 42 40 35 30 30 26 24 27 25 27 24 24 26 25
16 17 16 14 11 10 10 10 11 11 10 14 16 20 27 32 35 34 40 56 60 88 90 60 42 46 50 44 47 47 45 51 50 49 48 38 41 36 30 30 27 26 25 25 33 32 39
15 14 14 12 11 10 9 10 10 11 12 15 17 22 27 31 30 35 40 51 81 85 60 53 44 43 58 57 53 52 59 58 54 55 47 37 33 34 29 30 30 31 32 42 44 52 41
15 15 13 12 10 9 9 8 10 12 15 17 21 26 28 30 36 38 40 57 69 48 43 42 40 41 43 58 57 58 57 55 47 47 49 55 55 41 34 27 36 44 36 43 44 34 38
20 17 15 13 11 9 8 7 9 11 14 20 31 32 35 40 41 36 43 75 53 35 47 62 49 44 42 60 60 61 63 58 56 55 61 62 58 54 45 29 27 35 38 42 47 41 44
23 20 17 15 12 9 8 9 9 11 14 24 33 40 39 45 50 47 58 49 41 35 41 73 58 40 44 39 50 49 67 54 54 64 56 64 65 53 43 30 29 32 42 49 51 59 58
27 23 20 17 15 11 9 10 12 16 26 38 47 51 48 50 57 63 55 43 44 42 61 86 63 44 48 53 59 60 63 57 66 69 66 60 58 50 38 40 37 51 45 48 52 58 67
32 27 23 20 21 16 12 13 18 25 46 59 66 71 60 54 65 59 54 41 42 52 63 62 54 41 56 59 61 63 58 62 70 73 66 59 60 60 44 48 50 54 54 60 77 63 64
40 32 25 25 30 21 16 21 31 45 52 59 69 80 86 68 61 60 48 51 50 59 59 59 52 60 63 69 73 70 66 77 75 73 64 56 53 47 45 55 47 50 59 54 64 75 74
43 37 33 34 39 31 32 36 70 88 80 85 97 92 87 71 65 51 54 49 56 55 65 59 72 73 78 90 77 72 72 74 71 57 60 60 50 53 96 90 70 61 48 49 53 66 75
47 40 36 41 43 42 46 64 95 98 98 97 89 67 58 61 64 55 53 61 53 63 64 59 76 69 77 79 74 74 67 67 65 53 51 57 58 61 55 54 50 57 57 61 68 78 85
50 44 40 43 47 50 57 92 98 98 98 94 82 61 57 53 63 62 59 69 62 67 63 74 74 73 70 71 63 69 62 57 49 49 56 59 64 66 64 54 54 67 71 73 69 80 81
55 48 43 44 50 55 63 97 98 95 96 79 68 61 58 54 63 68 69 65 66 72 77 76 68 73 67 55 45 45 53 47 57 66 65 65 65 64 60 66 66 71 71 71 75 79 78
56 50 47 45 51 61 72 97 98 98 96 98 89 85 75 77 76 80 84 79 82 83 81 77 73 68 64 49 50 55 58 75 71 67 71 63 60 68 67 77 79 72 65 69 77 81 80
56 51 50 51 55 64 86 98 97 97 98 98 98 98 98 98 93 95 90 90 93 86 86 79 73 71 59 57 64 68 66 57 51 48 52 55 68 69 63 75 77 77 68 70 74 80 79
59 54 55 57 63 73 96 97 97 96 97 97 98 97 95 95 97 92 93 92 93 89 82 85 77 72 66 67 67 56 50 43 48 44 48 46 46 59 64 74 77 78 74 73 74 77 77
63 60 61 68 76 89 98 97 96 97 98 98 98 96 96 93 92 90 89 90 85 85 88 84 78 73 66 64 67 43 44 42 63 58 49 46 51 55 55 58 74 72 76 75 82 82 74
67 65 68 76 88 98 98 98 98 98 97 97 97 97 95 92 90 85 85 84 81 77 77 72 71 63 61 56 40 35 53 56 58 58 66 51 61 61 53 56 82 79 83 84 84 82 79
72 70 72 86 96 97 98 98 97 94 93 93 98 97 96 89 92 88 86 84 83 78 76 67 55 49 43 34 30 36 46 58 46 58 46 50 50 64 73 76 71 72 76 78 81 81 83

GFSGBSN_prec_cthk_135.txt.gz
RH
57 53 48 45 47 55 61 60 59 56 55 57 57 56 66 68 64 62 56 51 51 47 45 47 42 37 26 25 31 35 31 29 25 21 19 21 20 23 21 18 17 16 17 18 19 19 20
32 29 27 24 20 18 20 23 25 35 42 46 50 47 50 52 55 55 54 50 50 50 42 38 36 31 31 34 24 32 30 27 23 14 13 17 19 19 18 17 14 14 14 13 13 12 12
28 25 22 19 17 17 17 18 18 20 22 33 31 41 43 43 43 41 45 44 49 49 50 39 37 32 31 31 27 24 27 22 18 13 15 16 18 17 18 17 15 15 15 15 13 14 16
25 23 19 18 17 16 16 19 18 17 19 24 24 33 30 40 39 37 41 44 46 47 49 45 37 30 30 30 27 27 24 22 17 15 14 14 15 15 16 15 16 16 16 17 16 16 15
26 24 26 24 21 19 19 21 24 22 20 24 27 28 32 34 41 40 36 42 45 41 47 39 42 40 33 27 25 23 23 19 19 19 16 16 16 17 20 22 22 19 21 19 19 17 15
27 25 23 21 21 23 22 20 18 22 23 25 29 31 30 32 43 40 43 44 44 47 45 45 45 41 34 28 24 22 21 19 18 16 18 20 21 23 23 23 26 23 21 19 18 18 16
24 21 22 18 18 19 19 22 25 25 25 26 28 30 33 34 37 44 43 43 44 43 36 41 46 43 33 28 24 23 21 21 19 18 21 24 26 28 24 23 25 22 21 19 17 14 14
25 26 24 19 17 17 18 20 23 26 27 29 29 30 31 31 36 39 45 51 48 51 43 39 33 40 42 44 32 28 30 27 31 30 28 28 27 26 23 23 23 23 20 19 14 17 20
29 27 27 26 23 18 17 16 17 21 25 27 29 30 28 28 32 40 46 52 55 53 49 38 33 28 31 43 40 37 37 32 32 31 34 33 30 27 26 27 26 23 19 19 22 22 20
25 27 26 27 26 20 17 18 22 24 22 22 23 25 30 27 29 33 39 45 51 50 61 39 34 28 25 31 36 43 47 31 34 39 40 35 33 33 31 29 28 24 22 26 27 27 28
16 17 19 19 18 16 13 11 14 16 18 16 19 21 25 24 28 29 30 35 45 51 72 37 42 36 31 36 32 31 40 37 40 43 47 39 37 38 37 34 30 27 28 30 29 29 32
16 15 16 16 15 13 11 10 9 11 17 18 19 23 27 25 26 32 34 39 42 63 71 42 41 39 35 36 35 39 36 36 40 44 49 44 45 42 40 43 36 34 31 31 28 38 52
19 16 14 14 13 12 10 9 9 10 14 20 20 23 24 26 24 34 42 42 63 69 42 39 43 45 44 41 43 47 44 43 48 58 60 54 51 51 49 45 39 36 37 55 52 61 50
26 23 17 17 15 12 11 9 8 11 15 21 23 24 26 28 33 38 44 55 64 34 38 36 40 39 36 36 37 41 42 51 61 62 63 63 63 46 40 38 33 41 45 57 58 54 52
25 25 21 18 15 14 12 10 9 10 15 23 26 29 27 28 38 45 48 65 43 26 23 28 35 43 39 36 43 46 46 44 57 64 66 73 63 59 52 56 52 49 57 48 52 46 52
27 29 24 21 18 15 12 11 11 11 16 24 30 34 23 34 47 50 61 48 33 22 22 33 45 50 56 47 62 57 51 42 57 61 63 69 74 70 60 60 58 47 44 58 60 62 63
31 31 28 24 20 16 14 12 10 9 16 26 35 43 25 38 54 62 58 38 33 27 30 39 40 46 46 47 62 47 46 48 59 59 64 72 78 72 68 61 54 45 41 44 47 60 73
35 32 31 28 23 19 20 18 10 8 17 31 37 44 36 46 60 62 58 32 31 30 29 38 60 65 63 53 67 57 51 64 63 60 65 74 81 83 68 64 62 57 60 57 74 63 72
38 36 35 32 29 27 23 21 16 9 16 30 41 46 51 50 61 56 48 45 40 38 40 45 45 50 57 66 73 59 60 64 70 72 75 74 87 85 65 64 61 57 67 63 69 75 73
40 46 44 38 35 34 34 30 28 28 37 48 57 68 74 67 62 59 58 58 48 41 47 43 49 49 56 63 62 68 74 66 66 76 75 77 84 82 84 74 65 69 71 69 58 66 64
53 53 50 45 39 40 39 36 38 52 52 52 59 70 64 69 68 75 72 75 74 58 47 55 48 47 55 70 77 82 79 83 81 80 80 80 95 83 66 70 88 91 83 62 58 63 76
60 58 53 47 43 43 41 44 50 58 65 76 93 97 87 74 84 98 93 83 75 54 52 51 46 46 53 74 72 85 86 83 74 69 76 70 69 75 69 65 63 69 61 63 66 67 74
68 66 56 50 45 45 45 48 55 67 79 98 98 97 94 93 96 98 89 71 52 65 57 49 47 52 69 72 75 68 71 69 70 71 69 64 64 69 64 61 60 62 56 63 65 63 67
73 68 59 53 48 49 51 52 60 69 96 98 97 97 88 87 78 67 67 59 61 71 57 53 55 66 78 73 71 74 67 60 67 68 58 70 76 67 74 76 80 60 61 61 63 64 71
78 68 63 57 52 52 54 57 63 78 98 98 96 93 86 80 70 66 70 63 65 62 64 66 80 83 79 76 76 76 75 73 73 90 88 85 81 77 83 79 69 70 66 70 69 67 71
87 75 65 59 57 55 58 62 62 89 97 97 97 98 98 94 87 80 84 84 86 85 84 90 89 85 78 77 78 78 83 73 81 72 67 66 67 80 74 78 82 68 64 66 71 73 66
92 77 66 61 59 61 64 64 72 96 97 91 97 98 98 97 95 94 92 94 91 93 97 95 86 83 79 80 82 74 71 52 64 60 50 54 54 58 59 66 72 61 62 67 77 70 70
94 79 69 65 64 66 71 73 88 98 98 96 91 92 97 96 95 97 94 95 94 93 95 89 88 82 81 81 78 71 60 70 70 67 67 63 58 57 57 63 75 61 66 76 75 72 75
91 76 69 69 76 78 80 86 97 98 98 98 98 98 98 94 95 95 94 93 93 89 86 87 79 73 72 72 67 64 58 73 66 80 70 77 59 66 67 70 72 72 66 60 60 65 71

GFSGBSN_prec_cthk_138.txt.gz
RH
80 79 76 78 74 72 69 66 64 70 74 69 65 59 54 55 54 60 62 56 51 46 44 43 40 41 42 34 29 24 31 31 30 27 24 19 18 22 24 22 18 16 15 15 16 17 16
58 57 55 49 44 39 34 36 40 41 41 43 47 50 52 44 42 44 46 47 43 43 43 39 38 35 34 32 30 29 25 25 29 28 21 13 14 16 20 19 19 19 15 14 13 14 14
36 35 35 34 30 28 28 27 23 22 20 20 27 31 35 31 36 36 37 39 35 35 38 40 37 33 30 34 27 28 27 24 21 20 16 13 15 16 15 17 17 18 15 15 14 14 14
29 28 28 29 30 31 26 22 19 17 17 18 21 24 37 27 32 32 32 33 30 30 33 37 37 30 28 32 29 22 21 22 19 17 14 14 15 13 13 15 16 17 16 16 16 16 15
33 34 32 31 30 29 24 19 18 18 18 19 20 26 26 25 29 31 30 31 32 31 32 32 34 34 30 26 27 25 22 22 19 17 14 15 15 14 15 17 20 21 20 20 19 18 17
39 36 33 31 30 30 26 25 23 21 23 24 25 29 33 33 30 33 32 32 30 31 32 35 35 35 33 28 24 24 23 23 20 17 16 16 17 18 22 22 21 20 19 19 19 18 17
37 31 30 31 25 26 27 26 29 28 25 28 27 28 29 30 34 36 34 37 33 33 34 32 36 36 34 30 30 29 28 25 21 19 21 21 22 23 23 22 21 22 21 21 21 21 18
33 31 29 28 25 24 23 21 25 28 29 29 28 27 27 29 31 34 36 40 40 39 34 28 31 32 27 35 42 33 27 28 29 31 31 28 28 28 27 26 25 24 23 24 22 21 21
32 31 32 31 30 29 26 25 25 23 25 27 27 27 27 28 30 33 35 39 42 46 41 32 25 23 23 25 28 34 33 32 33 34 36 33 31 30 30 29 27 26 26 26 24 22 20
33 29 30 30 29 28 27 26 27 27 27 26 25 23 24 24 27 31 32 37 43 42 47 34 28 28 27 29 27 28 30 31 31 35 40 33 30 36 36 34 34 33 34 33 33 32 31
30 30 28 29 26 26 26 25 26 28 28 28 28 28 26 27 28 28 32 35 35 37 52 27 37 37 32 35 29 29 32 34 33 35 34 32 37 41 42 37 37 35 38 37 35 37 37
33 27 26 25 24 23 20 16 16 15 19 22 22 23 24 24 26 27 28 30 33 46 52 28 32 31 31 33 31 31 34 36 36 37 36 36 44 46 46 46 43 42 43 45 43 44 51
27 23 20 18 20 18 15 14 13 14 17 19 21 23 25 25 26 30 33 37 47 52 25 30 28 29 30 34 41 40 37 41 44 51 48 44 40 41 46 46 48 48 53 65 62 66 54
27 25 23 22 16 16 15 14 14 15 18 19 20 22 25 26 29 38 42 49 52 27 25 25 34 33 36 37 37 43 39 37 38 45 52 55 55 49 51 52 60 60 53 60 64 63 57
29 28 27 27 23 17 15 15 15 15 20 20 22 24 26 29 33 42 50 54 33 24 24 22 29 36 33 32 37 36 36 36 40 46 52 62 62 61 63 58 54 55 53 45 58 60 66
27 27 26 25 26 22 18 19 17 18 20 21 22 25 26 29 40 54 55 38 29 19 23 27 32 28 33 33 37 44 48 47 48 53 58 58 61 56 57 59 60 61 63 72 76 79 74
33 30 29 28 28 24 24 22 19 20 22 24 28 31 30 28 44 57 52 37 26 22 26 33 40 40 37 36 42 49 46 53 43 44 50 57 66 64 67 65 64 68 74 71 69 73 76
35 35 31 31 31 28 29 27 25 23 26 34 33 38 38 42 46 49 48 28 30 32 28 34 39 35 39 35 43 44 43 53 55 51 62 66 74 78 70 73 70 73 71 66 74 68 70
44 39 37 38 34 35 33 31 27 24 26 34 37 38 43 52 53 47 38 41 39 37 36 39 35 38 41 49 53 49 45 54 65 61 66 70 83 90 79 74 70 85 78 76 80 85 78
54 46 46 43 42 41 37 33 30 27 26 40 40 44 52 55 46 44 45 40 42 39 38 33 42 45 41 47 59 56 48 56 63 61 73 73 81 85 89 84 81 79 80 77 78 86 83
62 53 48 52 51 45 42 38 35 38 45 46 46 45 44 52 52 43 44 40 43 48 48 51 48 50 49 54 49 51 53 62 66 77 81 82 88 88 89 92 89 91 83 77 78 87 81
67 58 61 59 58 51 47 45 40 42 53 58 55 54 54 55 58 64 74 62 58 56 63 62 58 48 51 55 42 49 55 73 85 87 90 85 91 93 93 94 81 83 91 88 89 80 68
70 67 71 72 64 56 50 47 45 45 52 61 66 75 75 73 87 94 93 87 77 87 86 83 71 56 67 50 49 53 65 75 81 87 90 84 86 85 82 83 82 80 65 67 62 53 61
72 75 78 78 71 61 54 50 47 48 52 60 71 76 77 86 92 94 98 96 91 91 91 82 64 53 49 51 60 63 81 79 79 84 79 82 78 76 84 84 82 56 54 57 60 62 65
77 79 87 82 73 63 56 51 52 52 56 62 73 76 92 94 93 97 98 97 94 87 88 64 60 53 54 66 72 85 86 83 81 80 79 74 80 87 93 86 71 68 62 65 69 69 70
87 88 89 84 72 65 57 57 55 51 55 65 75 88 94 95 90 86 82 71 75 80 80 79 68 61 74 79 88 94 93 85 88 79 85 94 93 94 94 85 81 64 61 63 64 69 67
87 91 89 80 69 63 59 58 56 54 61 70 75 94 96 98 91 83 71 67 68 77 80 87 75 79 86 89 88 86 84 74 84 80 92 98 98 88 87 85 71 55 56 60 69 60 62
83 92 91 76 68 63 61 60 58 60 65 72 88 93 96 98 94 94 95 89 87 86 86 85 91 94 92 90 87 83 76 67 72 67 70 69 63 67 63 67 67 44 53 63 61 57 55
91 94 89 75 70 66 66 64 66 65 71 82 96 90 94 97 95 95 93 93 89 89 88 90 87 88 85 86 82 77 83 81 80 88 72 76 62 63 56 52 58 63 63 59 48 47 51

GFSGBSN_prec_cthk_141.txt.gz
RH
87 88 91 89 86 85 80 78 74 74 71 71 66 71 72 66 62 57 54 53 53 55 45 40 37 34 34 41 41 35 26 26 31 28 31 28 21 19 21 22 22 21 18 16 18 19 17
85 84 82 79 79 76 71 63 59 55 51 52 52 54 52 51 51 50 45 42 33 35 34 29 30 31 29 28 28 29 31 27 24 26 26 24 22 14 16 20 20 19 18 17 14 14 14
60 54 55 54 53 49 45 41 38 35 32 32 32 33 35 34 35 34 33 34 29 27 28 24 26 27 27 25 26 25 24 25 24 20 18 17 18 13 14 14 15 16 18 16 13 13 13
52 48 45 44 39 36 33 32 29 27 28 27 25 24 29 27 32 37 31 33 26 24 27 24 23 23 23 23 21 21 23 20 18 17 16 13 15 14 14 14 14 16 17 18 15 15 14
52 46 41 37 32 31 30 27 29 28 30 26 25 22 21 26 29 32 28 28 27 23 26 26 25 22 20 22 25 24 23 24 21 18 16 15 14 14 14 16 17 19 19 19 18 16 15
49 47 46 39 33 33 32 35 32 26 27 25 24 24 23 24 26 27 30 31 28 23 24 25 26 25 23 22 24 24 24 25 25 23 19 16 16 17 18 19 19 19 21 20 18 16 16
46 47 45 42 41 39 35 37 36 33 30 30 29 26 29 32 32 32 32 32 32 28 27 25 26 25 25 25 26 29 29 29 27 25 24 22 21 21 21 22 20 20 20 21 21 19 18
45 45 41 40 36 33 34 32 30 31 33 34 34 31 29 31 31 32 35 37 35 33 31 25 25 25 22 29 32 27 26 27 26 27 28 27 28 28 28 26 27 27 27 25 25 25 23
40 39 38 38 37 36 35 32 30 29 30 30 30 30 26 30 29 27 28 30 31 34 33 26 21 22 21 23 28 26 30 25 26 28 31 33 34 32 31 30 33 32 31 30 29 30 30
42 38 34 34 34 34 33 31 31 32 31 30 29 27 27 27 26 26 27 30 32 33 37 28 25 24 27 27 27 24 24 27 30 29 31 32 31 32 37 36 37 36 36 37 38 40 41
47 46 39 37 37 33 33 29 27 28 29 29 28 26 25 27 28 29 28 29 31 32 25 26 36 36 32 32 28 28 35 37 34 33 34 34 35 36 35 37 42 39 46 46 45 46 45
45 49 45 40 42 35 32 29 26 26 29 30 30 29 28 30 31 31 32 33 34 39 32 27 31 31 31 30 27 25 30 35 34 36 35 36 38 38 38 40 43 47 48 55 56 55 58
46 46 45 39 39 37 33 30 28 27 27 29 32 32 30 28 25 28 29 32 37 43 20 26 27 26 29 31 32 31 33 36 38 42 40 40 37 38 41 43 46 48 51 66 69 78 56
34 36 33 32 32 35 32 27 25 24 28 30 31 36 30 26 24 25 30 34 44 23 23 23 26 29 31 28 28 32 33 34 36 40 44 45 43 45 48 51 52 56 58 67 77 72 65
36 32 38 30 28 26 23 18 16 14 16 19 21 27 30 30 29 29 32 42 30 21 16 17 19 29 29 26 29 28 33 33 28 30 35 44 41 45 49 60 64 62 65 64 71 68 72
32 32 32 40 30 29 27 24 18 16 16 20 24 31 36 36 32 36 40 31 25 17 18 22 25 21 28 28 31 33 31 26 31 47 49 49 54 54 54 55 60 65 63 74 80 80 82
32 38 39 44 40 32 35 26 21 18 20 24 29 31 32 32 40 44 41 34 26 20 19 22 28 33 33 35 37 39 33 28 39 53 46 51 61 51 60 67 65 67 72 75 77 80 87
38 42 40 36 38 38 35 27 24 23 24 31 32 38 38 36 43 44 41 35 29 27 23 22 25 26 33 37 42 43 41 34 30 39 59 58 64 67 61 66 76 76 74 79 98 82 84
42 43 43 43 43 41 38 29 29 28 33 35 43 42 44 45 45 41 39 37 37 35 34 33 26 27 30 34 40 36 30 27 32 45 61 69 74 72 67 69 70 84 87 89 88 86 84
40 45 44 42 41 39 41 34 33 34 38 44 50 56 57 57 48 42 43 37 39 37 37 35 34 34 39 46 46 49 54 44 42 46 58 74 74 79 83 80 82 83 80 89 95 98 92
53 49 43 45 44 41 45 42 40 39 45 52 51 52 49 50 55 53 47 38 40 43 43 39 38 40 47 51 49 46 45 56 52 51 57 74 82 88 87 91 93 95 90 87 92 92 93
59 51 50 49 50 51 54 52 48 45 48 61 56 57 60 53 48 52 51 46 47 43 68 79 50 40 39 41 40 46 49 46 55 54 72 84 95 97 94 92 93 98 98 96 89 82 81
86 68 60 55 58 62 61 58 54 52 53 62 66 62 61 60 58 60 52 51 55 82 87 80 62 66 68 66 55 42 48 56 65 71 83 96 99 98 94 88 95 94 79 83 77 75 68
93 86 79 69 75 75 71 65 59 56 54 60 68 72 72 66 63 62 71 75 78 89 88 85 87 86 76 85 67 65 66 64 64 65 78 95 98 94 94 93 94 73 75 70 68 64 61
92 87 82 82 86 82 79 71 65 60 58 62 60 64 69 67 64 69 81 88 83 89 91 92 89 86 90 80 77 98 80 62 64 75 85 88 95 96 92 90 77 78 69 65 63 59 62
94 88 83 84 94 90 82 76 71 66 64 61 60 66 68 66 65 76 89 91 90 87 89 89 88 86 76 80 84 74 67 66 78 82 82 86 89 95 95 91 95 77 64 62 58 65 62
95 92 86 88 96 94 82 75 70 67 63 58 58 69 71 72 83 95 94 92 91 88 83 80 76 78 76 79 80 79 90 82 94 90 94 94 96 96 91 96 80 66 61 58 58 54 54
93 93 96 96 96 89 79 70 66 64 62 59 57 68 76 77 90 90 90 83 76 68 71 75 83 83 90 91 96 95 90 86 85 80 85 86 94 97 98 95 78 59 53 51 48 53 51
90 91 91 93 94 83 74 70 65 62 62 60 62 71 80 85 92 92 94 94 85 88 86 84 84 90 88 88 85 86 85 83 82 88 80 83 74 75 72 61 48 45 47 56 56 49 42

GFSGBSN_prec_cthk_144.txt.gz
RH
89 87 88 86 82 82 80 81 81 78 73 73 73 71 66 63 60 65 64 56 52 47 45 35 35 29 26 29 32 36 32 30 25 29 32 29 28 26 21 19 21 22 24 23 21 20 19
91 90 89 90 89 89 86 85 83 78 75 68 66 63 58 53 52 51 48 47 41 36 34 30 23 19 20 21 22 23 26 27 28 26 22 24 26 25 22 18 18 22 22 20 18 16 14
82 82 78 80 79 78 73 68 67 62 55 47 44 43 42 43 45 42 38 33 35 30 29 27 20 20 17 12 18 20 20 23 22 19 18 15 17 19 19 16 13 14 17 18 17 18 16
77 71 62 60 69 62 53 52 48 44 41 37 32 30 28 27 33 33 29 29 27 29 29 25 21 19 17 11 14 16 19 18 20 18 16 13 13 12 13 13 13 15 16 17 15 17 16
62 67 71 66 57 53 54 50 42 38 37 33 28 28 28 28 31 33 27 27 29 26 27 25 24 21 14 16 18 20 24 25 23 22 21 17 16 14 14 14 13 16 15 17 16 15 15
57 52 51 50 54 46 44 39 38 36 31 27 26 27 29 30 29 32 30 27 28 24 25 24 28 26 18 15 18 18 20 23 24 24 23 22 20 20 19 17 18 17 20 19 18 14 15
50 52 50 44 44 45 44 43 39 35 29 27 31 31 31 30 33 31 30 30 27 27 28 24 26 26 22 18 18 19 18 22 24 26 27 26 26 25 24 24 22 22 22 21 20 19 18
51 51 48 49 44 40 43 42 43 42 42 39 37 34 32 30 34 34 33 36 36 35 33 28 27 28 23 26 28 23 20 20 20 22 24 27 30 28 28 30 32 32 31 30 27 25 23
52 48 47 46 44 43 42 40 37 36 39 39 37 33 32 30 29 29 31 35 35 36 33 26 24 26 22 23 27 25 26 23 23 24 25 26 26 30 33 34 34 35 37 34 33 31 29
54 53 50 44 41 39 38 38 36 37 36 36 35 34 29 28 27 27 28 30 33 31 33 24 26 27 30 29 27 25 24 31 27 27 29 30 28 27 31 34 36 37 36 38 39 39 39
50 49 49 44 38 35 34 33 32 34 34 34 32 31 28 29 28 29 29 31 29 31 26 25 32 32 32 32 29 27 32 32 32 32 34 34 32 33 35 35 37 39 38 40 43 45 46
59 57 55 53 46 45 42 38 33 34 35 34 33 32 27 28 31 30 30 30 30 32 23 27 33 34 35 33 30 24 29 32 32 33 32 32 32 34 34 37 38 40 43 49 55 56 62
66 63 56 56 50 52 51 46 41 36 37 37 37 33 31 30 33 30 32 35 36 36 22 26 32 32 29 27 29 24 26 29 34 37 39 40 36 37 40 39 48 45 49 64 66 75 59
72 71 64 67 57 52 49 47 46 41 39 38 39 36 30 34 32 34 34 36 38 24 24 27 28 28 26 25 24 24 27 29 31 34 39 42 40 33 38 45 48 53 58 68 66 65 58
53 48 52 58 51 49 48 42 38 35 39 41 40 46 40 35 36 39 38 46 25 22 18 18 13 22 25 24 25 26 27 28 26 29 37 42 37 35 40 47 51 53 57 59 71 76 88
51 44 45 48 48 37 36 31 25 24 25 28 30 32 32 25 26 30 35 32 26 19 19 20 16 15 24 24 26 29 29 25 23 26 38 44 52 42 49 58 60 61 62 76 90 95 92
52 51 43 41 42 45 34 30 26 22 23 27 30 32 26 29 30 38 39 35 25 19 18 18 24 26 27 28 25 25 28 25 25 23 40 60 60 44 51 65 71 72 72 77 86 87 90
50 46 43 37 38 45 43 41 32 25 28 30 30 34 25 33 37 40 37 34 28 24 23 24 24 25 27 30 35 39 33 27 30 31 43 56 64 66 54 60 61 67 77 84 97 93 92
60 54 49 44 46 46 45 37 37 34 36 35 37 34 35 40 41 40 35 33 34 31 34 32 28 27 30 33 37 31 27 24 28 28 39 49 62 74 67 62 67 70 74 82 92 99 96
68 60 55 53 50 47 44 43 41 38 40 40 42 44 46 47 41 39 38 36 38 33 34 35 34 34 37 43 43 40 39 37 38 44 38 54 65 68 80 75 80 83 82 85 94 97 90
83 67 61 54 56 51 49 46 43 37 42 46 45 43 38 47 54 51 46 39 39 42 37 37 38 41 45 54 48 39 37 35 31 44 59 68 71 68 76 80 85 85 85 86 97 92 94
97 84 70 55 52 52 47 43 43 38 42 49 48 47 47 46 48 52 54 48 43 46 45 46 47 64 81 83 58 49 50 46 49 42 49 71 78 79 80 85 87 90 87 89 87 91 92
96 97 84 70 57 50 51 45 43 44 45 49 51 51 56 55 53 57 51 47 46 50 53 58 67 74 95 70 59 53 49 42 41 56 69 72 80 88 89 85 93 92 84 84 80 79 77
97 97 95 81 63 52 50 49 50 49 51 55 58 65 69 63 61 53 51 55 55 59 67 70 75 90 76 78 80 79 79 63 50 49 74 77 85 94 97 97 96 73 71 74 77 71 74
98 98 97 90 77 66 59 60 60 60 64 63 64 67 70 74 66 64 62 66 63 73 77 80 92 87 87 97 96 92 82 73 59 58 69 61 76 98 98 97 79 70 74 81 77 68 68
98 98 97 92 88 78 79 73 72 69 71 72 68 72 71 72 70 62 61 59 69 77 80 85 89 93 96 95 93 90 78 79 82 75 54 64 86 98 98 94 89 75 76 76 71 67 58
98 97 96 91 90 91 98 95 87 81 80 83 76 73 73 69 57 61 68 81 88 90 93 94 93 96 96 95 95 83 72 68 78 63 75 96 98 96 98 97 93 79 75 72 71 56 50
91 92 91 89 89 92 99 98 92 88 85 82 78 72 72 70 60 64 82 95 98 98 98 96 97 95 92 87 80 73 68 65 78 79 88 91 97 95 94 95 92 75 73 66 47 48 46
88 87 90 95 93 95 98 98 93 84 81 81 76 75 73 73 64 69 94 96 95 98 92 85 82 82 81 77 73 74 82 85 87 93 85 92 82 87 83 79 77 74 67 50 46 52 50